CFG1RT EDDF-LOWW

Flight info

Callsign CFG1RT
Flight time 0h 57m
Altitude 31000
Route CINDY8S/18 CINDY Z74 HAREM DCT ASLEP DCT TAKUT DCT DINKU L603 BESNI L605 MIQ DCT ALUTU DCT BIBAG DCT AKIMA DCT MASUR MASUR3W
Aircraft A321/M-SDE3FGHIRWY/LB1

Departure

Time 2026-05-05 18:42
Airport Frankfurt Main Airport (EDDF)

Arrival

Time 2026-05-05 19:39
Airport Vienna International Airport (LOWW)
Time Latitude Longitude Altitude Speed Heading
2026-05-05 18:19 50.03796 8.54491 355 ft 0 kts 159°
2026-05-05 18:37 50.03761 8.54511 347 ft 10 kts 160°
2026-05-05 18:37 50.03703 8.54500 347 ft 9 kts 236°
2026-05-05 18:38 50.03671 8.54370 346 ft 18 kts 249°
2026-05-05 18:38 50.03624 8.54173 342 ft 19 kts 249°
2026-05-05 18:38 50.03578 8.53982 338 ft 18 kts 249°
2026-05-05 18:38 50.03535 8.53801 337 ft 18 kts 250°
2026-05-05 18:39 50.03492 8.53623 339 ft 17 kts 249°
2026-05-05 18:39 50.03452 8.53455 338 ft 16 kts 250°
2026-05-05 18:39 50.03414 8.53295 336 ft 16 kts 249°
2026-05-05 18:39 50.03365 8.53090 335 ft 22 kts 250°
2026-05-05 18:40 50.03312 8.52870 334 ft 21 kts 250°
2026-05-05 18:40 50.03266 8.52673 333 ft 17 kts 250°
2026-05-05 18:40 50.03205 8.52595 335 ft 10 kts 180°
2026-05-05 18:40 50.03177 8.52595 335 ft 8 kts 180°
2026-05-05 18:41 50.02929 8.52597 334 ft 70 kts 180°
2026-05-05 18:41 50.02232 8.52604 335 ft 128 kts 179°
2026-05-05 18:41 50.01185 8.52616 333 ft 171 kts 179°
2026-05-05 18:41 49.99909 8.52640 590 ft 188 kts 180°
2026-05-05 18:42 49.98599 8.52656 1234 ft 188 kts 181°
2026-05-05 18:42 49.97305 8.52832 1876 ft 189 kts 163°
2026-05-05 18:42 49.96181 8.53984 2247 ft 207 kts 131°
2026-05-05 18:42 49.95404 8.55999 2407 ft 228 kts 120°
2026-05-05 18:43 49.94616 8.58215 2868 ft 236 kts 120°
2026-05-05 18:43 49.94060 8.60626 3452 ft 242 kts 99°
2026-05-05 18:43 49.93927 8.63346 3730 ft 265 kts 95°
2026-05-05 18:43 49.93815 8.66265 4360 ft 274 kts 97°
2026-05-05 18:44 49.93312 8.69106 5093 ft 275 kts 121°
2026-05-05 18:44 49.92101 8.71369 5901 ft 273 kts 145°
2026-05-05 18:44 49.90553 8.73089 6683 ft 275 kts 147°
2026-05-05 18:44 49.89025 8.74903 7429 ft 280 kts 139°
2026-05-05 18:45 49.87789 8.77266 8156 ft 287 kts 123°
2026-05-05 18:45 49.86801 8.79997 8888 ft 291 kts 122°
2026-05-05 18:45 49.85810 8.82758 9624 ft 295 kts 122°
2026-05-05 18:45 49.84798 8.85565 10141 ft 306 kts 122°
2026-05-05 18:46 49.83715 8.88545 10291 ft 329 kts 122°
2026-05-05 18:46 49.82563 8.91699 10399 ft 351 kts 122°
2026-05-05 18:46 49.81325 8.95091 10537 ft 372 kts 122°
2026-05-05 18:46 49.80018 8.98667 10651 ft 391 kts 121°
2026-05-05 18:47 49.78658 9.02394 10984 ft 402 kts 121°
2026-05-05 18:47 49.77282 9.06180 11522 ft 406 kts 121°
2026-05-05 18:47 49.76116 9.10192 12031 ft 413 kts 111°
2026-05-05 18:47 49.75321 9.14488 12546 ft 417 kts 108°
2026-05-05 18:48 49.74219 9.18647 13052 ft 418 kts 120°
2026-05-05 18:48 49.72621 9.22407 13582 ft 419 kts 131°
2026-05-05 18:48 49.70695 9.25794 14064 ft 421 kts 134°
2026-05-05 18:48 49.68744 9.29182 14575 ft 423 kts 134°
2026-05-05 18:49 49.66796 9.32607 15085 ft 425 kts 133°
2026-05-05 18:49 49.64851 9.36053 15581 ft 427 kts 133°
2026-05-05 18:49 49.62982 9.39637 16067 ft 431 kts 126°
2026-05-05 18:49 49.61489 9.43665 16554 ft 436 kts 117°
2026-05-05 18:50 49.60415 9.48052 17035 ft 440 kts 110°
2026-05-05 18:50 49.59460 9.52550 17520 ft 442 kts 110°
2026-05-05 18:50 49.58494 9.57058 18012 ft 444 kts 110°
2026-05-05 18:50 49.57517 9.61592 18441 ft 447 kts 110°
2026-05-05 18:51 49.56534 9.66134 18873 ft 448 kts 110°
2026-05-05 18:51 49.55542 9.70701 19327 ft 449 kts 110°
2026-05-05 18:51 49.54551 9.75259 19755 ft 450 kts 110°
2026-05-05 18:51 49.53517 9.79817 20167 ft 451 kts 114°
2026-05-05 18:52 49.52121 9.84123 20567 ft 450 kts 123°
2026-05-05 18:52 49.50314 9.88058 20960 ft 450 kts 130°
2026-05-05 18:52 49.48340 9.91808 21330 ft 452 kts 131°
2026-05-05 18:52 49.46378 9.95527 21711 ft 454 kts 131°
2026-05-05 18:53 49.44358 9.99349 22094 ft 456 kts 131°
2026-05-05 18:53 49.42354 10.03136 22472 ft 458 kts 131°
2026-05-05 18:53 49.40364 10.06891 22844 ft 460 kts 131°
2026-05-05 18:53 49.38342 10.10702 23224 ft 462 kts 131°
2026-05-05 18:54 49.36308 10.14524 23568 ft 464 kts 131°
2026-05-05 18:54 49.34262 10.18362 23879 ft 465 kts 131°
2026-05-05 18:54 49.32209 10.22209 24184 ft 467 kts 131°
2026-05-05 18:54 49.30153 10.26066 24527 ft 466 kts 131°
2026-05-05 18:55 49.28108 10.29907 24950 ft 464 kts 131°
2026-05-05 18:55 49.26069 10.33729 25333 ft 463 kts 131°
2026-05-05 18:55 49.24023 10.37535 25726 ft 462 kts 133°
2026-05-05 18:55 49.21789 10.41044 26146 ft 459 kts 138°
2026-05-05 18:56 49.19501 10.44429 26567 ft 457 kts 138°
2026-05-05 18:56 49.17220 10.47803 26993 ft 455 kts 138°
2026-05-05 18:56 49.14950 10.51163 27429 ft 454 kts 138°
2026-05-05 18:56 49.12692 10.54515 27851 ft 452 kts 138°
2026-05-05 18:57 49.10443 10.57860 28270 ft 450 kts 138°
2026-05-05 18:57 49.08200 10.61191 28698 ft 449 kts 138°
2026-05-05 18:57 49.05969 10.64498 29094 ft 447 kts 138°
2026-05-05 18:57 49.03742 10.67795 29520 ft 445 kts 138°
2026-05-05 18:58 49.01526 10.71066 29945 ft 443 kts 139°
2026-05-05 18:58 48.99334 10.74353 30311 ft 442 kts 135°
2026-05-05 18:58 48.97574 10.78202 30592 ft 448 kts 120°
2026-05-05 18:58 48.96458 10.82662 30812 ft 453 kts 112°
2026-05-05 18:59 48.94535 10.91811 30861 ft 454 kts 111°
2026-05-05 18:59 48.92656 11.00918 30846 ft 454 kts 111°
2026-05-05 19:00 48.90734 11.10079 30846 ft 456 kts 112°
2026-05-05 19:00 48.88776 11.19258 30839 ft 457 kts 112°
2026-05-05 19:01 48.86810 11.28445 30823 ft 457 kts 112°
2026-05-05 19:01 48.84847 11.37619 30816 ft 457 kts 112°
2026-05-05 19:02 48.82873 11.46778 30782 ft 457 kts 112°
2026-05-05 19:02 48.80886 11.55941 30784 ft 458 kts 112°
2026-05-05 19:03 48.78893 11.65117 30788 ft 458 kts 112°
2026-05-05 19:03 48.76894 11.74293 30792 ft 458 kts 112°
2026-05-05 19:04 48.74888 11.83466 30803 ft 459 kts 112°
2026-05-05 19:04 48.72861 11.92665 30806 ft 462 kts 113°
2026-05-05 19:05 48.70818 12.01898 30816 ft 462 kts 113°
2026-05-05 19:05 48.68783 12.11070 30815 ft 463 kts 113°
2026-05-05 19:06 48.66727 12.20298 30820 ft 463 kts 113°
2026-05-05 19:06 48.64658 12.29508 30788 ft 464 kts 113°
2026-05-05 19:07 48.62577 12.38764 30799 ft 466 kts 113°
2026-05-05 19:07 48.60483 12.48054 30791 ft 468 kts 113°
2026-05-05 19:08 48.58367 12.57362 30793 ft 469 kts 113°
2026-05-05 19:08 48.56242 12.66669 30796 ft 469 kts 114°
2026-05-05 19:09 48.54108 12.75978 30795 ft 469 kts 113°
2026-05-05 19:09 48.51975 12.85290 30796 ft 470 kts 114°
2026-05-05 19:10 48.49824 12.94598 30800 ft 470 kts 114°
2026-05-05 19:10 48.47678 13.03827 30803 ft 470 kts 114°
2026-05-05 19:11 48.45518 13.13116 30773 ft 470 kts 113°
2026-05-05 19:11 48.43348 13.22414 30779 ft 471 kts 113°
2026-05-05 19:12 48.41754 13.32018 30782 ft 479 kts 99°
2026-05-05 19:12 48.41968 13.42087 30776 ft 484 kts 88°
2026-05-05 19:13 48.42574 13.52186 30750 ft 484 kts 88°
2026-05-05 19:13 48.43151 13.62295 30762 ft 485 kts 88°
2026-05-05 19:14 48.43718 13.72419 30769 ft 485 kts 88°
2026-05-05 19:14 48.44275 13.82542 30766 ft 485 kts 88°
2026-05-05 19:15 48.44821 13.92676 30768 ft 485 kts 88°
2026-05-05 19:15 48.45364 14.02795 30765 ft 484 kts 88°
2026-05-05 19:16 48.45635 14.07834 30619 ft 481 kts 88°
2026-05-05 19:16 48.45903 14.12852 29883 ft 481 kts 88°
2026-05-05 19:16 48.46166 14.17859 29177 ft 478 kts 88°
2026-05-05 19:16 48.46425 14.22832 28584 ft 473 kts 88°
2026-05-05 19:17 48.46676 14.27752 27980 ft 468 kts 88°
2026-05-05 19:17 48.46919 14.32614 27367 ft 463 kts 88°
2026-05-05 19:17 48.47160 14.37429 26796 ft 459 kts 88°
2026-05-05 19:17 48.47398 14.42201 26231 ft 454 kts 88°
2026-05-05 19:18 48.47631 14.46912 25686 ft 449 kts 88°
2026-05-05 19:18 48.47861 14.51575 25119 ft 445 kts 88°
2026-05-05 19:18 48.48011 14.54661 24743 ft 442 kts 88°
2026-05-05 19:18 48.48234 14.59264 24201 ft 439 kts 88°
2026-05-05 19:19 48.48527 14.65306 23498 ft 434 kts 88°
2026-05-05 19:19 48.48745 14.69829 22902 ft 430 kts 89°
2026-05-05 19:19 48.48956 14.74310 22281 ft 427 kts 89°
2026-05-05 19:19 48.49163 14.78750 21674 ft 423 kts 88°
2026-05-05 19:20 48.49301 14.81729 21270 ft 421 kts 88°
2026-05-05 19:20 48.49504 14.86113 20663 ft 417 kts 88°
2026-05-05 19:20 48.49703 14.90460 20078 ft 414 kts 88°
2026-05-05 19:20 48.49899 14.94782 19506 ft 411 kts 88°
2026-05-05 19:21 48.50091 14.99068 18949 ft 408 kts 88°
2026-05-05 19:21 48.50278 15.03266 18420 ft 406 kts 88°
2026-05-05 19:21 48.50464 15.07492 17874 ft 403 kts 88°
2026-05-05 19:21 48.50646 15.11700 17296 ft 400 kts 88°
2026-05-05 19:22 48.50825 15.15861 16776 ft 396 kts 88°
2026-05-05 19:22 48.51002 15.19985 16258 ft 392 kts 88°
2026-05-05 19:22 48.51176 15.24071 15751 ft 388 kts 88°
2026-05-05 19:22 48.51348 15.28113 15274 ft 384 kts 88°
2026-05-05 19:23 48.51517 15.32115 14781 ft 381 kts 88°
2026-05-05 19:23 48.51683 15.36087 14295 ft 378 kts 88°
2026-05-05 19:23 48.51844 15.40023 13824 ft 375 kts 88°
2026-05-05 19:23 48.51971 15.43940 13324 ft 372 kts 92°
2026-05-05 19:24 48.51795 15.47817 12793 ft 368 kts 96°
2026-05-05 19:24 48.51578 15.51651 12279 ft 366 kts 96°
2026-05-05 19:24 48.51363 15.55459 11772 ft 363 kts 96°
2026-05-05 19:24 48.51151 15.59232 11377 ft 357 kts 96°
2026-05-05 19:25 48.50944 15.62931 10991 ft 352 kts 96°
2026-05-05 19:25 48.50735 15.66588 10549 ft 348 kts 96°
2026-05-05 19:25 48.50262 15.70142 10088 ft 345 kts 105°
2026-05-05 19:25 48.49676 15.73635 9781 ft 340 kts 104°
2026-05-05 19:26 48.49108 15.77010 9723 ft 324 kts 105°
2026-05-05 19:26 48.48567 15.80219 9731 ft 307 kts 105°
2026-05-05 19:26 48.48052 15.83273 9735 ft 296 kts 105°
2026-05-05 19:26 48.47548 15.86262 9736 ft 293 kts 105°
2026-05-05 19:27 48.47044 15.89239 9739 ft 293 kts 105°
2026-05-05 19:27 48.46540 15.92214 9743 ft 293 kts 105°
2026-05-05 19:27 48.46035 15.95193 9742 ft 293 kts 105°
2026-05-05 19:27 48.45532 15.98153 9545 ft 291 kts 105°
2026-05-05 19:28 48.45027 16.01102 9096 ft 291 kts 105°
2026-05-05 19:28 48.44524 16.04038 8740 ft 288 kts 105°
2026-05-05 19:28 48.44030 16.06947 8377 ft 286 kts 105°
2026-05-05 19:28 48.43538 16.09838 8006 ft 284 kts 105°
2026-05-05 19:29 48.43053 16.12667 7646 ft 282 kts 105°
2026-05-05 19:29 48.42555 16.15556 7269 ft 280 kts 107°
2026-05-05 19:29 48.42074 16.18345 6997 ft 275 kts 107°
2026-05-05 19:29 48.41608 16.21063 6962 ft 262 kts 107°
2026-05-05 19:30 48.41156 16.23701 6973 ft 258 kts 106°
2026-05-05 19:30 48.40709 16.26304 6710 ft 256 kts 107°
2026-05-05 19:30 48.40260 16.28898 6396 ft 255 kts 107°
2026-05-05 19:30 48.39815 16.31468 6088 ft 254 kts 107°
2026-05-05 19:31 48.39370 16.34027 5754 ft 253 kts 106°
2026-05-05 19:31 48.38924 16.36588 5378 ft 253 kts 107°
2026-05-05 19:31 48.38478 16.39149 5040 ft 253 kts 107°
2026-05-05 19:31 48.38035 16.41685 5002 ft 244 kts 106°
2026-05-05 19:32 48.37488 16.44023 4984 ft 234 kts 121°
2026-05-05 19:32 48.36649 16.46041 4984 ft 221 kts 130°
2026-05-05 19:32 48.35571 16.47514 4980 ft 201 kts 151°
2026-05-05 19:32 48.34311 16.48320 4973 ft 195 kts 167°
2026-05-05 19:33 48.33007 16.48875 4796 ft 194 kts 168°
2026-05-05 19:33 48.31697 16.49433 4572 ft 197 kts 169°
2026-05-05 19:33 48.30377 16.49997 4315 ft 197 kts 169°
2026-05-05 19:33 48.29065 16.50556 4059 ft 195 kts 169°
2026-05-05 19:34 48.27765 16.51111 3792 ft 192 kts 169°
2026-05-05 19:34 48.26509 16.51648 3546 ft 180 kts 169°
2026-05-05 19:34 48.25365 16.52138 3311 ft 162 kts 170°
2026-05-05 19:35 48.23440 16.52959 2930 ft 130 kts 173°
2026-05-05 19:35 48.22588 16.53319 2761 ft 125 kts 173°
2026-05-05 19:35 48.21773 16.53664 2599 ft 122 kts 172°
2026-05-05 19:35 48.20964 16.54007 2437 ft 120 kts 171°
2026-05-05 19:36 48.20171 16.54343 2284 ft 118 kts 170°
2026-05-05 19:36 48.19388 16.54675 2130 ft 117 kts 170°
2026-05-05 19:36 48.18604 16.55007 1977 ft 117 kts 171°
2026-05-05 19:36 48.17816 16.55341 1817 ft 118 kts 170°
2026-05-05 19:37 48.17026 16.55676 1664 ft 119 kts 168°
2026-05-05 19:37 48.16223 16.56016 1503 ft 120 kts 167°
2026-05-05 19:37 48.15415 16.56358 1343 ft 121 kts 165°
2026-05-05 19:37 48.14606 16.56702 1152 ft 121 kts 165°
2026-05-05 19:38 48.13770 16.57064 967 ft 128 kts 165°
2026-05-05 19:38 48.12909 16.57425 818 ft 129 kts 164°
2026-05-05 19:38 48.12050 16.57786 659 ft 127 kts 163°
2026-05-05 19:38 48.11256 16.58123 622 ft 93 kts 164°
2026-05-05 19:39 48.10891 16.58274 619 ft 33 kts 168°
2026-05-05 19:39 48.10674 16.58269 609 ft 29 kts 193°
2026-05-05 19:39 48.10554 16.58202 619 ft 13 kts 241°
2026-05-05 19:39 48.10600 16.58122 617 ft 11 kts 338°
2026-05-05 19:40 48.10676 16.58089 623 ft 15 kts 344°
2026-05-05 19:40 48.10776 16.58048 620 ft 15 kts 344°
2026-05-05 19:40 48.10905 16.57992 623 ft 22 kts 344°
2026-05-05 19:40 48.11047 16.57932 619 ft 19 kts 344°
2026-05-05 19:41 48.11129 16.57803 618 ft 19 kts 295°
2026-05-05 19:41 48.11194 16.57603 615 ft 24 kts 296°
2026-05-05 19:41 48.11273 16.57363 624 ft 29 kts 296°
2026-05-05 19:41 48.11358 16.57097 621 ft 28 kts 295°
2026-05-05 19:42 48.11442 16.56842 617 ft 27 kts 296°
2026-05-05 19:42 48.11521 16.56599 613 ft 25 kts 296°
2026-05-05 19:42 48.11597 16.56366 617 ft 24 kts 296°
2026-05-05 19:42 48.11669 16.56146 614 ft 23 kts 296°
2026-05-05 19:43 48.11737 16.55938 622 ft 21 kts 296°
2026-05-05 19:43 48.11799 16.55838 610 ft 11 kts
2026-05-05 19:43 48.11868 16.55881 618 ft 10 kts 26°
2026-05-05 19:43 48.11910 16.55878 615 ft 6 kts 313°
2026-05-05 19:44 48.11929 16.55827 617 ft 5 kts 296°
2026-05-05 19:44 48.11936 16.55805 623 ft 0 kts 296°